Powrót do katalogu

ORBCOMM FM 41

AktywnyŁącznośćLEO
NORAD 33061·PAYLOAD·🇺🇸 United States

Wystrzelony Jun 19, 2008 z Kapustin Yar

Loading…

Następne Przeloty (najbliższe 24 godziny)

TLE

ŚwieżeSource: Space-Track

Epoka: Sep 14, 2026, 04:23 UTC

1 33061U 08031B   26257.18303413  .00000861  00000-0  13196-3 0  9998
2 33061  48.4445 317.3859 0003974 193.1080 196.2972 14.82826366981577

Śledź ORBCOMM FM 41 w czasie rzeczywistym z AllMySat

Download on the App Store